Time,TemperatureF,DewpointF,PressureIn,WindDirection,WindDirectionDegrees,WindSpeedMPH,WindSpeedGustMPH,Humidity,HourlyPrecipIn,Conditions,Clouds,dailyrainin,SoftwareType,DateUTC
2013-05-28 00:06:00,51.3,50.0,29.94,West,278,2.0,9.0,94,0.00,,,0.00,weatherlink.com 1.10,2013-05-28 07:06:00,
2013-05-28 00:21:00,51.0,49.0,29.94,WNW,302,4.0,12.0,94,0.00,,,0.00,weatherlink.com 1.10,2013-05-28 07:21:00,
2013-05-28 00:36:00,50.5,49.0,29.94,West,269,3.0,8.0,95,0.00,,,0.00,weatherlink.com 1.10,2013-05-28 07:36:00,
2013-05-28 00:51:00,50.5,49.0,29.95,NNW,344,1.0,3.0,95,0.00,,,0.00,weatherlink.com 1.10,2013-05-28 07:51:00,
2013-05-28 01:06:00,50.5,49.0,29.95,WNW,297,0.0,4.0,95,0.00,,,0.00,weatherlink.com 1.10,2013-05-28 08:06:00,
2013-05-28 01:21:00,50.6,49.0,29.95,West,271,0.0,4.0,95,0.00,,,0.00,weatherlink.com 1.10,2013-05-28 08:21:00,
2013-05-28 01:36:00,50.6,49.0,29.96,WSW,242,2.0,6.0,95,0.00,,,0.00,weatherlink.com 1.10,2013-05-28 08:36:00,
2013-05-28 01:52:00,50.6,49.0,29.96,WSW,256,0.0,3.0,95,0.00,,,0.00,weatherlink.com 1.10,2013-05-28 08:52:00,
2013-05-28 02:07:00,50.5,49.0,29.96,NE,34,0.0,2.0,95,0.00,,,0.00,weatherlink.com 1.10,2013-05-28 09:07:00,
2013-05-28 02:22:00,50.5,49.0,29.96,NNE,22,2.0,5.0,95,0.00,,,0.00,weatherlink.com 1.10,2013-05-28 09:22:00,
2013-05-28 02:37:00,50.6,49.0,29.96,West,272,0.0,5.0,95,0.00,,,0.00,weatherlink.com 1.10,2013-05-28 09:37:00,
2013-05-28 02:52:00,50.5,49.0,29.96,ENE,71,5.0,5.0,95,0.00,,,0.00,weatherlink.com 1.10,2013-05-28 09:52:00,
2013-05-28 03:07:00,50.4,49.0,29.96,NNE,18,0.0,3.0,95,0.00,,,0.00,weatherlink.com 1.10,2013-05-28 10:07:00,
2013-05-28 03:22:00,50.3,49.0,29.96,ENE,60,0.0,3.0,95,0.00,,,0.00,weatherlink.com 1.10,2013-05-28 10:22:00,
2013-05-28 03:37:00,50.3,49.0,29.96,South,190,0.0,2.0,95,0.00,,,0.00,weatherlink.com 1.10,2013-05-28 10:37:00,
2013-05-28 03:52:00,50.3,49.0,29.96,NE,34,0.0,2.0,95,0.00,,,0.00,weatherlink.com 1.10,2013-05-28 10:52:00,
2013-05-28 04:07:00,50.4,49.0,29.96,ENE,62,0.0,1.0,95,0.00,,,0.00,weatherlink.com 1.10,2013-05-28 11:07:00,
2013-05-28 04:22:00,50.4,49.0,29.96,ENE,61,0.0,1.0,96,0.00,,,0.00,weatherlink.com 1.10,2013-05-28 11:22:00,
2013-05-28 04:37:00,50.4,49.0,29.96,ENE,62,0.0,1.0,96,0.00,,,0.00,weatherlink.com 1.10,2013-05-28 11:37:00,
2013-05-28 04:52:00,50.2,49.0,29.97,WNW,286,3.0,8.0,95,0.00,,,0.00,weatherlink.com 1.10,2013-05-28 11:52:00,
2013-05-28 05:07:00,50.0,49.0,29.97,WNW,292,1.0,6.0,96,0.00,,,0.00,weatherlink.com 1.10,2013-05-28 12:07:00,
2013-05-28 05:22:00,49.9,49.0,29.97,WNW,300,0.0,2.0,96,0.00,,,0.00,weatherlink.com 1.10,2013-05-28 12:22:00,
2013-05-28 05:37:00,49.8,49.0,29.97,WNW,300,0.0,1.0,96,0.00,,,0.00,weatherlink.com 1.10,2013-05-28 12:37:00,
2013-05-28 05:52:00,49.5,48.0,29.97,WNW,301,0.0,2.0,96,0.00,,,0.00,weatherlink.com 1.10,2013-05-28 12:52:00,
2013-05-28 06:07:00,49.5,48.0,29.97,East,96,0.0,3.0,96,0.00,,,0.00,weatherlink.com 1.10,2013-05-28 13:07:00,
2013-05-28 06:22:00,49.6,49.0,29.98,NE,55,0.0,2.0,96,0.00,,,0.00,weatherlink.com 1.10,2013-05-28 13:22:00,
2013-05-28 06:37:00,49.8,49.0,29.98,ENE,78,0.0,2.0,96,0.00,,,0.00,weatherlink.com 1.10,2013-05-28 13:37:00,
2013-05-28 06:52:00,49.9,49.0,29.99,West,272,0.0,4.0,96,0.00,,,0.00,weatherlink.com 1.10,2013-05-28 13:52:00,
2013-05-28 07:07:00,49.9,49.0,29.98,WSW,257,2.0,6.0,96,0.00,,,0.00,weatherlink.com 1.10,2013-05-28 14:07:00,
2013-05-28 07:22:00,49.9,49.0,29.98,WSW,258,0.0,2.0,96,0.00,,,0.00,weatherlink.com 1.10,2013-05-28 14:22:00,
2013-05-28 07:37:00,50.1,49.0,29.99,WNW,292,0.0,3.0,96,0.00,,,0.00,weatherlink.com 1.10,2013-05-28 14:37:00,
2013-05-28 07:52:00,50.3,49.0,29.99,WNW,303,0.0,3.0,96,0.00,,,0.00,weatherlink.com 1.10,2013-05-28 14:52:00,
2013-05-28 08:07:00,50.2,49.0,29.99,ENE,73,0.0,3.0,96,0.00,,,0.00,weatherlink.com 1.10,2013-05-28 15:07:00,
2013-05-28 08:22:00,50.5,49.0,29.99,ENE,71,0.0,1.0,96,0.00,,,0.00,weatherlink.com 1.10,2013-05-28 15:22:00,
2013-05-28 08:37:00,50.7,50.0,29.99,WNW,294,4.0,4.0,96,0.00,,,0.00,weatherlink.com 1.10,2013-05-28 15:37:00,
2013-05-28 08:52:00,50.9,50.0,30.00,NW,306,1.0,3.0,96,0.00,,,0.00,weatherlink.com 1.10,2013-05-28 15:52:00,
2013-05-28 09:07:00,51.0,50.0,30.00,West,275,0.0,7.0,96,0.00,,,0.00,weatherlink.com 1.10,2013-05-28 16:07:00,
2013-05-28 09:22:00,51.0,50.0,30.00,West,271,0.0,7.0,95,0.00,,,0.00,weatherlink.com 1.10,2013-05-28 16:22:00,
2013-05-28 09:37:00,51.4,50.0,30.01,WNW,286,1.0,4.0,95,0.00,,,0.00,weatherlink.com 1.10,2013-05-28 16:37:00,
2013-05-28 09:52:00,51.6,50.0,30.01,West,281,0.0,5.0,95,0.00,,,0.00,weatherlink.com 1.10,2013-05-28 16:52:00,
2013-05-28 10:07:00,51.8,50.0,30.01,WNW,296,1.0,6.0,94,0.00,,,0.00,weatherlink.com 1.10,2013-05-28 17:07:00,
2013-05-28 10:22:00,52.2,51.0,30.01,WNW,284,4.0,8.0,94,0.00,,,0.00,weatherlink.com 1.10,2013-05-28 17:22:00,
2013-05-28 10:37:00,52.8,51.0,30.01,WSW,237,1.0,7.0,93,0.00,,,0.00,weatherlink.com 1.10,2013-05-28 17:37:00,
2013-05-28 10:52:00,52.5,50.0,30.02,SW,221,4.0,10.0,91,0.00,,,0.00,weatherlink.com 1.10,2013-05-28 17:52:00,
2013-05-28 11:07:00,51.7,50.0,30.03,West,270,3.0,8.0,92,0.00,,,0.00,weatherlink.com 1.10,2013-05-28 18:07:00,
2013-05-28 11:22:00,51.9,50.0,30.03,NW,305,0.0,6.0,93,0.00,,,0.00,weatherlink.com 1.10,2013-05-28 18:22:00,
2013-05-28 11:37:00,52.2,50.0,30.03,SE,127,1.0,6.0,92,0.00,,,0.00,weatherlink.com 1.10,2013-05-28 18:37:00,
2013-05-28 11:52:00,53.2,51.0,30.04,West,271,2.0,6.0,91,0.00,,,0.00,weatherlink.com 1.10,2013-05-28 18:52:00,
2013-05-28 12:07:00,54.6,52.0,30.04,WNW,288,10.0,10.0,91,0.00,,,0.00,weatherlink.com 1.10,2013-05-28 19:07:00,
2013-05-28 12:22:00,54.0,50.0,30.05,WNW,284,6.0,12.0,86,0.00,,,0.00,weatherlink.com 1.10,2013-05-28 19:22:00,
2013-05-28 12:37:00,54.4,51.0,30.05,West,266,3.0,9.0,87,0.00,,,0.00,weatherlink.com 1.10,2013-05-28 19:37:00,
2013-05-28 12:52:00,54.4,51.0,30.05,West,278,5.0,9.0,87,0.00,,,0.00,weatherlink.com 1.10,2013-05-28 19:52:00,
2013-05-28 13:07:00,54.2,50.0,30.05,WNW,286,2.0,11.0,86,0.00,,,0.00,weatherlink.com 1.10,2013-05-28 20:07:00,
2013-05-28 13:22:00,54.4,50.0,30.05,West,273,4.0,13.0,85,0.00,,,0.00,weatherlink.com 1.10,2013-05-28 20:22:00,
2013-05-28 13:37:00,54.7,50.0,30.05,WSW,247,3.0,10.0,84,0.00,,,0.00,weatherlink.com 1.10,2013-05-28 20:37:00,
2013-05-28 13:52:00,54.8,50.0,30.04,West,267,4.0,13.0,84,0.00,,,0.00,weatherlink.com 1.10,2013-05-28 20:52:00,
2013-05-28 14:07:00,55.0,50.0,30.05,SSW,209,2.0,11.0,84,0.00,,,0.00,weatherlink.com 1.10,2013-05-28 21:07:00,
2013-05-28 14:23:00,55.0,49.0,30.05,West,262,3.0,16.0,81,0.00,,,0.00,weatherlink.com 1.10,2013-05-28 21:23:00,
2013-05-28 14:38:00,55.5,50.0,30.04,WNW,284,7.0,9.0,81,0.00,,,0.00,weatherlink.com 1.10,2013-05-28 21:38:00,
2013-05-28 14:53:00,55.9,50.0,30.04,NW,320,1.0,14.0,81,0.00,,,0.00,weatherlink.com 1.10,2013-05-28 21:53:00,
2013-05-28 15:08:00,56.3,50.0,30.04,West,278,5.0,9.0,79,0.00,,,0.00,weatherlink.com 1.10,2013-05-28 22:08:00,
2013-05-28 15:23:00,56.7,50.0,30.04,WSW,258,2.0,9.0,78,0.00,,,0.00,weatherlink.com 1.10,2013-05-28 22:23:00,
2013-05-28 15:38:00,55.7,48.0,30.04,West,277,5.0,10.0,74,0.00,,,0.00,weatherlink.com 1.10,2013-05-28 22:38:00,
2013-05-28 15:53:00,55.3,48.0,30.04,West,273,3.0,9.0,77,0.00,,,0.00,weatherlink.com 1.10,2013-05-28 22:53:00,
2013-05-28 16:08:00,55.3,49.0,30.04,WNW,296,3.0,8.0,78,0.00,,,0.00,weatherlink.com 1.10,2013-05-28 23:08:00,
2013-05-28 16:23:00,55.6,49.0,30.04,ENE,58,0.0,6.0,78,0.00,,,0.00,weatherlink.com 1.10,2013-05-28 23:23:00,
2013-05-28 16:38:00,55.2,48.0,30.03,West,266,1.0,7.0,78,0.00,,,0.00,weatherlink.com 1.10,2013-05-28 23:38:00,
2013-05-28 16:53:00,55.0,49.0,30.03,WSW,257,2.0,5.0,81,0.00,,,0.00,weatherlink.com 1.10,2013-05-28 23:53:00,
2013-05-28 17:08:00,55.1,50.0,30.02,West,276,7.0,8.0,82,0.00,,,0.00,weatherlink.com 1.10,2013-05-29 00:08:00,
2013-05-28 17:23:00,55.0,49.0,30.01,NW,323,2.0,11.0,79,0.00,,,0.00,weatherlink.com 1.10,2013-05-29 00:23:00,
2013-05-28 17:37:00,54.9,49.0,30.00,West,281,0.0,8.0,79,0.00,,,0.00,weatherlink.com 1.10,2013-05-29 00:37:00,
2013-05-28 17:53:00,55.6,48.0,29.99,WNW,298,4.0,19.0,76,0.00,,,0.00,weatherlink.com 1.10,2013-05-29 00:53:00,
2013-05-28 18:08:00,55.9,48.0,29.98,East,83,2.0,5.0,76,0.00,,,0.00,weatherlink.com 1.10,2013-05-29 01:08:00,
2013-05-28 18:23:00,55.9,48.0,29.98,West,279,3.0,8.0,75,0.00,,,0.00,weatherlink.com 1.10,2013-05-29 01:23:00,
2013-05-28 18:37:00,55.6,49.0,29.97,SSE,158,1.0,4.0,78,0.00,,,0.00,weatherlink.com 1.10,2013-05-29 01:37:00,
2013-05-28 18:53:00,55.2,49.0,29.96,WSW,243,0.0,4.0,80,0.00,,,0.00,weatherlink.com 1.10,2013-05-29 01:53:00,
2013-05-28 19:08:00,54.5,49.0,29.94,North,5,2.0,4.0,81,0.00,,,0.00,weatherlink.com 1.10,2013-05-29 02:08:00,
2013-05-28 19:38:00,53.9,48.0,29.92,NNW,347,0.0,4.0,81,0.00,,,0.00,weatherlink.com 1.10,2013-05-29 02:38:00,
2013-05-28 19:53:00,53.5,49.0,29.92,East,97,0.0,3.0,84,0.00,,,0.00,weatherlink.com 1.10,2013-05-29 02:53:00,
2013-05-28 20:08:00,53.2,49.0,29.91,NE,49,0.0,3.0,85,0.00,,,0.00,weatherlink.com 1.10,2013-05-29 03:08:00,
2013-05-28 20:23:00,52.7,49.0,29.90,NE,49,0.0,0.0,86,0.00,,,0.00,weatherlink.com 1.10,2013-05-29 03:23:00,
2013-05-28 20:38:00,52.1,48.0,29.89,NE,49,0.0,2.0,87,0.00,,,0.00,weatherlink.com 1.10,2013-05-29 03:38:00,
2013-05-28 20:53:00,51.7,49.0,29.88,NE,49,0.0,1.0,89,0.00,,,0.00,weatherlink.com 1.10,2013-05-29 03:53:00,
2013-05-28 21:08:00,51.2,48.0,29.89,NE,49,0.0,2.0,90,0.00,,,0.00,weatherlink.com 1.10,2013-05-29 04:08:00,
2013-05-28 21:23:00,50.9,48.0,29.89,NE,49,0.0,2.0,90,0.00,,,0.00,weatherlink.com 1.10,2013-05-29 04:23:00,
2013-05-28 21:38:00,50.8,48.0,29.89,NE,40,0.0,2.0,91,0.00,,,0.00,weatherlink.com 1.10,2013-05-29 04:38:00,
2013-05-28 21:53:00,50.4,48.0,29.88,NE,54,0.0,2.0,92,0.00,,,0.00,weatherlink.com 1.10,2013-05-29 04:53:00,
2013-05-28 22:08:00,50.2,48.0,29.89,NE,54,1.0,1.0,92,0.00,,,0.00,weatherlink.com 1.10,2013-05-29 05:08:00,
2013-05-28 22:23:00,50.0,48.0,29.88,NE,54,0.0,2.0,93,0.00,,,0.00,weatherlink.com 1.10,2013-05-29 05:23:00,
2013-05-28 22:38:00,49.9,48.0,29.88,NE,54,0.0,0.0,93,0.00,,,0.00,weatherlink.com 1.10,2013-05-29 05:38:00,
2013-05-28 22:53:00,49.8,48.0,29.87,NE,54,0.0,0.0,94,0.00,,,0.00,weatherlink.com 1.10,2013-05-29 05:53:00,
2013-05-28 23:08:00,49.7,48.0,29.86,NE,50,0.0,2.0,94,0.00,,,0.00,weatherlink.com 1.10,2013-05-29 06:08:00,
2013-05-28 23:23:00,49.6,48.0,29.85,NE,50,0.0,1.0,94,0.00,,,0.00,weatherlink.com 1.10,2013-05-29 06:23:00,
2013-05-28 23:38:00,49.5,48.0,29.83,West,271,1.0,7.0,94,0.00,,,0.00,weatherlink.com 1.10,2013-05-29 06:38:00,
2013-05-28 23:53:00,49.5,48.0,29.82,ENE,57,0.0,4.0,94,0.00,,,0.00,weatherlink.com 1.10,2013-05-29 06:53:00,